Showing default

COSMOS 2540, 44517

Orbit data source: Space-Track

COSMOS 2540, 44517 is a payload satellite owned by TS VS RF (CIS) in SSO that was launched on Fri, 30 Aug 2019 UTC via an ROKOT launch vehicle from the Plesetsk Missile And Space Complex (PKMTR). Payload-class satellites include a variety of spacecraft equipped with specific instruments for various scientific and technological missions. These include communications satellites like Starlink; space stations such as the ISS; scientific satellites like the Hubble; Earth observation satellites from companies like Planet Labs, Umbra, and HawkEye 360; GPS; miniature CubeSats for education and research; and military/defense satellites.

Loading next visibility...
Identifier
44517, 2019-057A
Orbit
SSO
Country
Flag of CISCIS
Related business
Manufacturer
Resehetnev ISS
Mission
Operational Defense Geodetic
Bus & Motor
GEO-IK-2 14F31, Unknown motor
Mass
~900 kg wet, ~900 kg dry
Launch date (UTC)
2019-08-30 (6 years ago)
Launch vehicle
ROKOT
Launch site
Plesetsk Missile And Space Complex (PKMTR)
Object type
Payload
Rocket body
Debris
Shape & HBR
Cyl + 2 Pan, 1.5 m
Radar Cross Section
3.727 m², Large (>1 m²)

Expand to show TLE details & history
Last TLE update: 7 hours ago

TLE from 7 hours ago
0 COSMOS 2540
1 44517U 19057A   25309.32104515  .00000066  00000-0  95760-4 0  9996
2 44517  99.2142 319.6454 0016412  53.3626 306.9036 13.85897502312866
Epoch: 2025-11-05T07:42Z
TLE epoch observation values (Epoch: 2025-11-05T07:42:18.300Z)
Latitude
-0.00009°
Longitude
159.27377°
Altitude
938.691 km
Speed
7.386 km/s
True Right ascension
21h 18m 34s
True Declination
0° 00' 00"
Sunlit
Object was in daylight at epoch
Visualization orbit readout
Latitude
Unknown
Longitude
Unknown
Altitude
Unknown
Speed
Unknown
Apparent Right ascension
Unknown
Apparent Declination
Unknown
Sunlit
N/A
Visualization observer readout
Local Sidereal Time
10:30:18
Azimuth
Unknown
Elevation
Unknown
Doppler factor
Unknown
Orbital elements
Apogee altitude
952.283 km
Perigee altitude
928.261 km
Semi-major axis
7,318.409 km
Eccentricity
0.00164
Inclination
99.2142°
RAAN
319.6454°
Arg. of periapsis
53.3626°
True anomaly
306.75303°
Mean anomaly
306.9036°
Eccentric anomaly
306.82833°
Mean motion
3.46672 °/min
Orbital period
103.84 mins
BSTAR
0.00009576
Loading maneuver chart data...
Computing Atmospheric mass density...
Loading historical data...
Loading historical data...
Loading historical data...
Loading historical data...
Loading historical data...
Loading historical data...
Loading historical data...
Other satellites on launch #57 in the year 2019 (2019-08-30 UTC)

Documentation

Showing up to 5 results
|